NY5V Weather Reports


Display with metric or nautical units.
time (UTC)temp
F
wind
direction
speed
MPH
gust
MPH
rain 1hr
in
rain 24hr
in
rain mn
in
humidity
%
barometer
mb
20260831094546 80 63 0.0 1.0 0.00 0.00 0.00 72 1016.2
20260831093542 80 48 0.0 0.0 0.00 0.00 0.00 72 1016.4
20260831092540 80 46 0.0 0.0 0.00 0.00 0.00 72 1016.3
20260831091536 80 44 0.0 0.0 0.00 0.00 0.00 72 1016.1
20260831090532 80 49 0.0 0.0 0.00 0.00 0.00 71 1015.9
20260831085529 80 49 0.0 0.0 0.00 0.00 0.00 70 1016.1
20260831084526 81 44 0.0 0.0 0.00 0.00 0.00 69 1016.0
20260831083523 81 46 0.0 0.0 0.00 0.00 0.00 68 1015.9
20260831082523 81 359 3.0 3.0 0.00 0.00 0.00 67 1016.1
20260831081520 81 19 2.0 2.0 0.00 0.00 0.00 68 1016.0
20260831080516 82 47 0.0 0.0 0.00 0.00 0.00 67 1015.9
20260831075513 82 46 0.0 0.0 0.00 0.00 0.00 67 1016.0
20260831074508 82 47 0.0 0.0 0.00 0.00 0.00 66 1016.2
20260831073508 82 43 0.0 0.0 0.00 0.00 0.00 65 1016.1
20260831072503 82 26 1.0 1.0 0.00 0.00 0.00 65 1015.8
20260831071458 82 48 0.0 0.0 0.00 0.00 0.00 65 1015.9
20260831070458 82 45 0.0 0.0 0.00 0.00 0.00 66 1016.0
20260831065456 82 49 0.0 0.0 0.00 0.00 0.00 65 1016.0
20260831064452 83 48 0.0 0.0 0.00 0.00 0.00 64 1016.1
20260831063449 83 47 0.0 1.0 0.00 0.00 0.00 63 1016.2
20260831062445 84 35 1.0 1.0 0.00 0.00 0.00 61 1016.4
20260831061442 84 51 0.0 0.0 0.00 0.00 0.00 61 1016.1
20260831060439 84 29 1.0 1.0 0.00 0.00 0.00 59 1015.9
20260831055439 84 50 0.0 1.0 0.00 0.00 0.00 60 1015.9
20260831054435 84 52 0.0 1.0 0.00 0.00 0.00 60 1015.8
20260831053433 84 53 0.0 0.0 0.00 0.00 0.00 60 1015.8
20260831052427 84 49 0.0 0.0 0.00 0.00 0.00 61 1015.7
20260831051424 84 40 0.0 0.0 0.00 0.00 0.00 61 1015.7
20260831050419 85 48 0.0 0.0 0.00 0.00 0.00 60 1015.5
20260831045417 85 46 0.0 0.0 0.00 0.00 0.00 59 1015.5
20260831044413 86 46 0.0 0.0 0.00 0.00 0.00 58 1015.7
20260831043408 86 47 0.0 0.0 0.00 0.00 0.00 58 1015.5
20260831042403 86 47 0.0 0.0 0.00 0.00 0.00 56 1015.5
20260831041358 86 36 0.0 1.0 0.00 0.00 0.00 56 1015.4
20260831040353 86 49 0.0 1.0 0.00 0.00 0.00 56 1015.2
20260831035350 85 25 0.0 0.0 0.00 0.00 0.00 58 1015.1
20260831034346 84 44 0.0 0.0 0.00 0.00 0.00 63 1015.1
20260831033342 84 45 0.0 0.0 0.00 0.00 0.00 64 1014.8
20260831032337 85 45 0.0 0.0 0.00 0.00 0.00 60 1014.7
20260831031332 85 45 0.0 0.0 0.00 0.00 0.00 61 1014.9
20260831030331 85 46 0.0 0.0 0.00 0.00 0.00 59 1014.6
20260831025331 85 45 0.0 0.0 0.00 0.00 0.00 59 1014.5
20260831024331 85 44 0.0 0.0 0.00 0.00 0.00 58 1014.5
20260831023330 85 44 0.0 0.0 0.00 0.00 0.00 58 1014.4
20260831022324 85 44 0.0 0.0 0.00 0.00 0.00 57 1014.3
20260831021324 86 44 0.0 0.0 0.00 0.00 0.00 57 1014.1
20260831020320 86 44 0.0 0.0 0.00 0.00 0.00 55 1013.8
20260831015317 87 46 0.0 0.0 0.00 0.00 0.00 55 1013.8
20260831014312 87 44 0.0 0.0 0.00 0.00 0.00 55 1013.8
20260831013307 87 46 0.0 0.0 0.00 0.00 0.00 54 1013.7
20260831012306 88 44 0.0 0.0 0.00 0.00 0.00 55 1013.6
20260831011305 89 44 0.0 0.0 0.00 0.00 0.00 53 1013.4
20260831010300 90 45 0.0 0.0 0.00 0.00 0.00 52 1013.4
20260831005258 91 47 0.0 0.0 0.00 0.00 0.00 48 1013.3
20260831004254 93 44 0.0 0.0 0.00 0.00 0.00 48 1013.4
20260831003251 94 47 0.0 0.0 0.00 0.00 0.00 44 1013.2
20260831002250 95 51 0.0 0.0 0.00 0.00 0.00 42 1013.4
20260831001247 96 51 0.0 0.0 0.00 0.00 0.00 42 1013.4
20260831000244 97 52 0.0 0.0 0.00 0.00 0.00 41 1013.4
20260830235244 97 52 0.0 0.0 0.00 0.00 0.00 39 1013.3
20260830234241 98 57 0.0 0.0 0.00 0.00 0.00 40 1013.3
20260830233237 98 53 0.0 0.0 0.00 0.00 0.00 39 1013.5
20260830232235 98 53 0.0 0.0 0.00 0.00 0.00 39 1013.6
20260830231230 99 47 0.0 0.0 0.00 0.00 0.00 38 1013.5
20260830230226 99 54 0.0 0.0 0.00 0.00 0.00 39 1013.5
20260830225227 99 39 0.0 0.0 0.00 0.00 0.00 38 1013.4
20260830224221 99 68 0.0 0.0 0.00 0.00 0.00 39 1013.5
20260830223219 99 75 1.0 1.0 0.00 0.00 0.00 38 1013.6
20260830222215 99 53 0.0 0.0 0.00 0.00 0.00 39 1013.6
20260830221214 100 53 0.0 1.0 0.00 0.00 0.00 38 1013.6
20260830220213 98 24 0.0 1.0 0.00 0.00 0.00 40 1013.8
20260830215213 99 66 1.0 1.0 0.00 0.00 0.00 38 1013.8
20260830214208 99 66 0.0 0.0 0.00 0.00 0.00 39 1013.9
20260830213203 99 54 0.0 0.0 0.00 0.00 0.00 39 1014.0
20260830212200 98 57 1.0 1.0 0.00 0.00 0.00 40 1014.2
20260830211159 100 37 1.0 1.0 0.00 0.00 0.00 39 1014.2
20260830210154 100 48 0.0 1.0 0.00 0.00 0.00 39 1014.2
20260830205152 100 54 0.0 1.0 0.00 0.00 0.00 39 1014.6
20260830204151 99 60 1.0 1.0 0.00 0.00 0.00 39 1014.5
20260830203148 98 46 0.0 1.0 0.00 0.00 0.00 39 1014.7
20260830202143 99 320 1.0 3.0 0.00 0.00 0.00 40 1015.0
20260830201138 100 353 2.0 4.0 0.00 0.00 0.00 38 1015.2
20260830200139 99 44 2.0 2.0 0.00 0.00 0.00 37 1015.2
20260830195138 99 33 0.0 1.0 0.00 0.00 0.00 37 1015.4
20260830194137 97 61 1.0 1.0 0.00 0.00 0.00 40 1015.6
20260830193132 96 36 2.0 2.0 0.00 0.00 0.00 41 1015.7
20260830192128 98 67 0.0 1.0 0.00 0.00 0.00 40 1015.9
20260830191125 98 6 3.0 3.0 0.00 0.00 0.00 40 1016.0
20260830190121 98 48 1.0 1.0 0.00 0.00 0.00 43 1016.2
20260830185116 98 42 2.0 3.0 0.00 0.00 0.00 43 1016.2
20260830184115 98 25 1.0 1.0 0.00 0.00 0.00 45 1016.4
20260830183112 98 43 1.0 2.0 0.00 0.00 0.00 44 1016.4
20260830182109 98 354 1.0 2.0 0.00 0.00 0.00 45 1016.5
20260830181104 98 44 0.0 1.0 0.00 0.00 0.00 45 1016.8
20260830180104 98 18 2.0 2.0 0.00 0.00 0.00 47 1016.8
20260830175104 96 44 0.0 1.0 0.00 0.00 0.00 47 1016.9
20260830174100 96 37 1.0 2.0 0.00 0.00 0.00 49 1017.1
20260830173055 96 9 2.0 3.0 0.00 0.00 0.00 48 1017.3
20260830172054 96 23 2.0 2.0 0.00 0.00 0.00 46 1017.5
20260830171050 95 40 2.0 2.0 0.00 0.00 0.00 48 1017.5
20260830170049 95 11 1.0 2.0 0.00 0.00 0.00 49 1017.6
20260830165046 93 23 4.0 6.0 0.00 0.00 0.00 52 1017.8
20260830164044 94 43 2.0 2.0 0.00 0.00 0.00 50 1018.1
20260830163039 93 18 1.0 1.0 0.00 0.00 0.00 50 1017.9
20260830162036 93 347 4.0 4.0 0.00 0.00 0.00 54 1017.8
20260830161031 92 26 1.0 2.0 0.00 0.00 0.00 55 1017.9
20260830160028 92 357 2.0 2.0 0.00 0.00 0.00 56 1018.0
20260830155026 92 41 2.0 3.0 0.00 0.00 0.00 56 1017.9
20260830154023 90 56 1.0 2.0 0.00 0.00 0.00 58 1018.1
20260830153019 90 18 2.0 2.0 0.00 0.00 0.00 59 1017.8
20260830152018 88 40 2.0 3.0 0.00 0.00 0.00 62 1017.7
20260830151014 88 336 2.0 3.0 0.00 0.00 0.00 63 1017.8
20260830150014 87 47 2.0 2.0 0.00 0.00 0.00 65 1017.7
20260830145009 86 50 0.0 1.0 0.00 0.00 0.00 71 1017.9
20260830144006 85 25 2.0 2.0 0.00 0.00 0.00 72 1017.8
20260830143005 84 286 2.0 3.0 0.00 0.00 0.00 75 1017.9
20260830142001 84 44 0.0 1.0 0.00 0.00 0.00 76 1017.9
20260830140958 83 53 1.0 2.0 0.00 0.00 0.00 78 1017.9
20260830135957 82 21 3.0 3.0 0.00 0.00 0.00 79 1018.1
20260830134954 82 45 2.0 2.0 0.00 0.00 0.00 81 1017.9
20260830133951 81 37 2.0 2.0 0.00 0.00 0.00 83 1017.9
20260830132948 80 49 1.0 1.0 0.00 0.00 0.00 85 1017.9
20260830131943 79 47 1.0 1.0 0.00 0.00 0.00 86 1017.8
20260830130943 79 37 2.0 2.0 0.00 0.00 0.00 87 1017.7
20260830125943 78 9 2.0 3.0 0.00 0.00 0.00 87 1017.7
20260830124943 78 35 1.0 1.0 0.00 0.00 0.00 87 1017.6
20260830123941 78 46 2.0 2.0 0.00 0.00 0.00 87 1017.2
20260830122941 78 33 1.0 2.0 0.00 0.00 0.00 87 1017.3
20260830121942 77 36 1.0 2.0 0.00 0.00 0.00 87 1017.1
20260830120937 77 36 1.0 2.0 0.00 0.00 0.00 87 1017.2
20260830115935 78 34 2.0 2.0 0.00 0.00 0.00 86 1016.9
20260830114932 78 41 0.0 0.0 0.00 0.00 0.00 85 1016.9
20260830113928 78 46 1.0 2.0 0.00 0.00 0.00 85 1016.7
20260830112925 78 50 2.0 2.0 0.00 0.00 0.00 84 1016.7
20260830111923 78 43 1.0 1.0 0.00 0.00 0.00 84 1016.6
20260830110919 78 41 1.0 1.0 0.00 0.00 0.00 83 1016.6
20260830105920 78 41 1.0 1.0 0.00 0.00 0.00 82 1016.6
20260830104918 78 39 1.0 1.0 0.00 0.00 0.00 82 1016.5
20260830103914 78 41 0.0 0.0 0.00 0.00 0.00 81 1016.7
20260830102913 79 50 0.0 1.0 0.00 0.00 0.00 80 1016.3
20260830101911 78 47 0.0 0.0 0.00 0.00 0.00 79 1016.3
20260830100906 79 41 1.0 1.0 0.00 0.00 0.00 77 1016.2
20260830095903 79 42 1.0 1.0 0.00 0.00 0.00 76 1016.1